Farmville, Virginia, United States (23901)
Lat: 37.30N, Lon: 78.39W
Wx Zone: VAZ060
Local Info
Past Weather Observations for Today

NOTE: This archive is for the closest National Weather Service station to Farmville. Information may differ from the station used for current weather conditions.

Click here for Long-term Archive

Time Weather Temperature Dewpoint Humidity Pressure Winds Precip Visibility
20:35
Overcast
Light Rain
77°F / 25°C 77°F / 25°C 100% 30.01 in
(1016 mb)
Calm 0.01 in
(0.25 mm)
7SM
20:15
Overcast
Light Rain
79°F / 26°C 77°F / 25°C 94% 30.01 in
(1016 mb)
Calm - 10SM
19:55
Overcast
Thunder Storms
77°F / 25°C 77°F / 25°C 100% 29.98 in
(1015 mb)
Calm - 7SM
19:35
Overcast
Light Rain
77°F / 25°C 77°F / 25°C 100% 29.98 in
(1015 mb)
Calm - 10SM
19:15
Mostly Cloudy
Light Rain
79°F / 26°C 75°F / 24°C 89% 30.01 in
(1016 mb)
Calm - 10SM
18:55
Mostly Cloudy
81°F / 27°C 75°F / 24°C 84% 30.01 in
(1016 mb)
Calm - 10SM
18:35
Partly Cloudy
Thunder Storms
81°F / 27°C 73°F / 23°C 79% 29.98 in
(1015 mb)
SW 3.5 mph
(SW 6 kph)
- 10SM
18:15
Partly Cloudy
82°F / 28°C 75°F / 24°C 79% 29.98 in
(1015 mb)
SSE 4.6 mph
(SSE 7 kph)
- 10SM
17:55
Partly Cloudy
82°F / 28°C 73°F / 23°C 74% 29.98 in
(1015 mb)
Calm - 10SM
17:35
Partly Cloudy
84°F / 29°C 72°F / 22°C 66% 29.98 in
(1015 mb)
SW 4.6 mph
(SW 7 kph)
- 10SM
17:15
Overcast
84°F / 29°C 72°F / 22°C 66% 29.98 in
(1015 mb)
SW 3.5 mph
(SW 6 kph)
- 10SM
16:55
Mostly Cloudy
86°F / 30°C 72°F / 22°C 62% 29.98 in
(1015 mb)
SW 6.9 mph
(SW 11 kph)
- 10SM
16:35
Mostly Cloudy
86°F / 30°C 70°F / 21°C 59% 29.98 in
(1015 mb)
S 5.8 mph
(S 9 kph)
- 10SM
16:15
Partly Cloudy
88°F / 31°C 70°F / 21°C 55% 29.98 in
(1015 mb)
SW 5.8 mph
(SW 9 kph)
- 10SM
15:55
Partly Cloudy
88°F / 31°C 70°F / 21°C 55% 29.98 in
(1015 mb)
SW 9.2 mph
(SW 15 kph)
- 10SM
15:35
Partly Cloudy
88°F / 31°C 70°F / 21°C 55% 29.98 in
(1015 mb)
S 9.2 mph
(S 15 kph)
- 10SM
15:15
Partly Cloudy
88°F / 31°C 70°F / 21°C 55% 29.98 in
(1015 mb)
S 11.5 mph
(S 19 kph)
- 10SM
14:55
Partly Cloudy
88°F / 31°C 70°F / 21°C 55% 29.98 in
(1015 mb)
S 8.1 mph
(S 13 kph)
- 10SM
14:35
Partly Cloudy
88°F / 31°C 70°F / 21°C 55% 30.01 in
(1016 mb)
SW 8.1 mph
(SW 13 kph)
- 10SM
14:15
Partly Cloudy
88°F / 31°C 68°F / 20°C 52% 30.01 in
(1016 mb)
SSE 6.9 mph
(SSE 11 kph)
- 10SM
13:55
Partly Cloudy
86°F / 30°C 68°F / 20°C 55% 30.01 in
(1016 mb)
SSE 10.4 mph
(SSE 17 kph)
- 10SM
13:35
Clear
86°F / 30°C 68°F / 20°C 55% 30.04 in
(1017 mb)
SSW 6.9 mph
(SSW 11 kph)
- 10SM
13:15
Clear
86°F / 30°C 68°F / 20°C 55% 30.04 in
(1017 mb)
S 6.9 mph
(S 11 kph)
- 10SM
12:55
Partly Cloudy
86°F / 30°C 68°F / 20°C 55% 30.04 in
(1017 mb)
SW 6.9 mph
(SW 11 kph)
- 10SM
12:35
Clear
86°F / 30°C 70°F / 21°C 59% 30.04 in
(1017 mb)
SSE 10.4 mph
(SSE 17 kph)
- 10SM
12:15
Clear
86°F / 30°C 70°F / 21°C 59% 30.04 in
(1017 mb)
S 10.4 mph
(S 17 kph)
- 10SM
11:55
Clear
84°F / 29°C 68°F / 20°C 58% 30.06 in
(1018 mb)
S 8.1 mph
(S 13 kph)
- 10SM
11:35
Partly Cloudy
84°F / 29°C 66°F / 19°C 55% 30.06 in
(1018 mb)
SW 5.8 mph
(SW 9 kph)
- 10SM
11:15
Partly Cloudy
84°F / 29°C 68°F / 20°C 58% 30.06 in
(1018 mb)
SW 6.9 mph
(SW 11 kph)
- 10SM
10:55
Clear
82°F / 28°C 66°F / 19°C 58% 30.06 in
(1018 mb)
SSE 8.1 mph
(SSE 13 kph)
- 10SM
10:35
Clear
82°F / 28°C 66°F / 19°C 58% 30.06 in
(1018 mb)
SW 9.2 mph
(SW 15 kph)
- 10SM
10:15
Clear
81°F / 27°C 68°F / 20°C 66% 30.09 in
(1019 mb)
S 10.4 mph
(S 17 kph)
- 10SM
09:55
Clear
81°F / 27°C 66°F / 19°C 62% 30.09 in
(1019 mb)
SW 5.8 mph
(SW 9 kph)
- 10SM
09:35
Clear
79°F / 26°C 66°F / 19°C 65% 30.09 in
(1019 mb)
SW 10.4 mph
(SW 17 kph)
- 10SM
09:15
Clear
79°F / 26°C 68°F / 20°C 70% 30.09 in
(1019 mb)
S 9.2 mph
(S 15 kph)
- 10SM
08:55
Clear
77°F / 25°C 68°F / 20°C 74% 30.09 in
(1019 mb)
SW 8.1 mph
(SW 13 kph)
- 10SM
08:35
Clear
75°F / 24°C 70°F / 21°C 83% 30.12 in
(1020 mb)
SSE 4.6 mph
(SSE 7 kph)
- 10SM
08:15
Clear
73°F / 23°C 70°F / 21°C 89% 30.12 in
(1020 mb)
SSE 6.9 mph
(SSE 11 kph)
- 10SM
07:55
Partly Cloudy
73°F / 23°C 70°F / 21°C 89% 30.12 in
(1020 mb)
SW 5.8 mph
(SW 9 kph)
- 10SM
07:35
Clear
72°F / 22°C 72°F / 22°C 100% 30.12 in
(1020 mb)
SSE 5.8 mph
(SSE 9 kph)
- 10SM
07:15
Clear
70°F / 21°C 70°F / 21°C 100% 30.12 in
(1020 mb)
S 5.8 mph
(S 9 kph)
- 10SM
06:55
Clear
68°F / 20°C 68°F / 20°C 100% 30.12 in
(1020 mb)
S 4.6 mph
(S 7 kph)
- 10SM
06:35
Clear
66°F / 19°C 66°F / 19°C 100% 30.12 in
(1020 mb)
S 3.5 mph
(S 6 kph)
- 10SM
06:15
Clear
66°F / 19°C 66°F / 19°C 100% 30.12 in
(1020 mb)
SSW 4.6 mph
(SSW 7 kph)
- 10SM
05:55
Clear
64°F / 18°C 64°F / 18°C 100% 30.12 in
(1020 mb)
Calm - 7SM
05:35
Clear
Fog And Mist
63°F / 17°C 63°F / 17°C 100% 30.12 in
(1020 mb)
Calm - 5SM
05:15
Clear
Fog And Mist
61°F / 16°C 61°F / 16°C 100% 30.12 in
(1020 mb)
SSW 3.5 mph
(SSW 6 kph)
- 5SM
04:55
Clear
63°F / 17°C 63°F / 17°C 100% 30.12 in
(1020 mb)
Calm - 7SM
04:35
Clear
Fog And Mist
63°F / 17°C 63°F / 17°C 100% 30.09 in
(1019 mb)
Calm - 4SM
04:15
Clear
63°F / 17°C 63°F / 17°C 100% 30.09 in
(1019 mb)
Calm - 7SM
03:55
Clear
61°F / 16°C 61°F / 16°C 100% 30.12 in
(1020 mb)
Calm - 7SM
03:35
Clear
63°F / 17°C 63°F / 17°C 100% 30.12 in
(1020 mb)
Calm - 10SM
03:15
Clear
64°F / 18°C 64°F / 18°C 100% 30.09 in
(1019 mb)
SW 3.5 mph
(SW 6 kph)
- 10SM
02:55
Partly Cloudy
64°F / 18°C 64°F / 18°C 100% 30.12 in
(1020 mb)
Calm - 10SM
02:35
Mostly Cloudy
Fog
63°F / 17°C 63°F / 17°C 100% 30.12 in
(1020 mb)
Calm - 1/2SM
02:15
Clear
63°F / 17°C 63°F / 17°C 100% 30.12 in
(1020 mb)
Calm - 7SM
01:55
Clear
64°F / 18°C 64°F / 18°C 100% 30.12 in
(1020 mb)
Calm - 10SM
01:35
Clear
66°F / 19°C 66°F / 19°C 100% 30.12 in
(1020 mb)
Calm - 10SM
01:15
Clear
66°F / 19°C 66°F / 19°C 100% 30.12 in
(1020 mb)
Calm - 7SM
00:55
Clear
Fog And Mist
64°F / 18°C 64°F / 18°C 100% 30.15 in
(1021 mb)
Calm - 3SM
00:35
Clear
64°F / 18°C 64°F / 18°C 100% 30.15 in
(1021 mb)
Calm - 7SM
00:15
Clear
64°F / 18°C 64°F / 18°C 100% 30.15 in
(1021 mb)
Calm - 10SM
Time Weather Temperature Dewpoint Humidity Pressure Winds Precip Visibility


Weather for websites

WeatherForYou.com, LLC is not responsible for any damages or problems caused by this service. Current weather conditions are obtained from the closest station including government and personal stations which may have varying degrees of accuracy. Weather forecasts are derived from the NOAA NDFD. Like all things, this site belongs to Jesus Christ... He just trusts us to maintain it. If you have any questions or comments email webmaster@weatherforyou.com

Copyright © 2016, WeatherForYou.com LLC. All rights reserved.